Hourly Data Report for October 21, 2014

All times are specified in Local Standard Time (LST). Add 1 hour to adjust for Daylight Saving Time where and when it is observed.

CHARLOTTETOWN A
PRINCE EDWARD ISLAND

46°17'21.000" N
63°07'09.000" W
48.50 m
8300301
71706
YYG

Download Data

Hourly Data (October 2014)
Hourly Data Report for October 21, 2014
Temp Definition
°C
Dew Point Temp Definition
°C
Rel Hum Definition
%
Wind Dir Definition
10's deg

Wind Spd Definition
km/h
Visibility Definition
km
Stn Press Definition
kPa
Hmdx Definition


Wind Chill Definition


Weather Definition


TIME
00:00 Legend Double Dagger 3.8 -0.2 75 25 9 24.1 100.76     LegendNANA
01:00 Legend Double Dagger 4.1 -0.3 73 24 13 24.1 100.83     LegendNANA
02:00 Legend Double Dagger 3.4 -0.1 78 25 9 24.1 100.87     Clear
03:00 Legend Double Dagger 3.0 0.4 83 23 9 24.1 100.90     LegendNANA
04:00 Legend Double Dagger 3.0 0.1 81 23 11 24.1 100.98     LegendNANA
05:00 Legend Double Dagger 2.9 0.1 82 22 9 24.1 101.09     Clear
06:00 Legend Double Dagger 3.3 -0.2 78 24 14 24.1 101.14     LegendNANA
07:00 Legend Double Dagger 3.8 -0.6 73 24 12 24.1 101.22     LegendNANA
08:00 Legend Double Dagger 5.4 0.4 70 24 15 24.1 101.32     Mostly Cloudy
09:00 Legend Double Dagger 6.9 -0.1 61 25 16 24.1 101.40     LegendNANA
10:00 Legend Double Dagger 8.5 0.3 56 25 13 24.1 101.40     LegendNANA
11:00 Legend Double Dagger 9.0 0.2 54 23 20 24.1 101.44     Mainly Clear
12:00 Legend Double Dagger 9.6 -0.3 50 26 16 24.1 101.44     LegendNANA
13:00 Legend Double Dagger 10.0 0.1 50 26 13 24.1 101.48     LegendNANA
14:00 Legend Double Dagger 10.3 -1.1 45 24 16 24.1 101.52     Mostly Cloudy
15:00 Legend Double Dagger 10.2 -1.2 45 26 14 24.1 101.57     LegendNANA
16:00 Legend Double Dagger 9.3 -1.1 48 27 6 24.1 101.64     LegendNANA
17:00 Legend Double Dagger 7.9 0.4 59 2 5 24.1 101.65     Mostly Cloudy
18:00 Legend Double Dagger 7.2 0.0 60 36 3 24.1 101.75     LegendNANA
19:00 Legend Double Dagger 6.3 0.2 65 15 9 24.1 101.82     LegendNANA
20:00 Legend Double Dagger 3.5 0.6 81 2 4 24.1 101.86     Mostly Cloudy
21:00 Legend Double Dagger 2.6 0.2 84 9 7 24.1 101.93     LegendNANA
22:00 Legend Double Dagger 3.1 1.2 87 6 7 24.1 101.99     LegendNANA
23:00 Legend Double Dagger 2.9 0.3 83 5 7 24.1 102.02     Mainly Clear

Notes on Data Quality.

Legend

  • E = Estimated
  • M = Missing
  • NA = Not Available
  • ‡ = Partner data that is not subject to review by the National Climate Archives
Date modified: